COSMOS 2251 DEB, 33933

Orbit data source: Space-Track

COSMOS 2251 DEB, 33933 is space debris in LEO originally from a launch on Wed, 16 Jun 1993 UTC launched from the Plesetsk Missile And Space Complex (PKMTR). The debris from Iridium 33, an American commercial communications satellite, has been tracked extensively since its accidental collision with the defunct Russian satellite Cosmos 2251 in 2009. This event, occurring at high speed in low Earth orbit (LEO), generated thousands of pieces of space debris, significantly increasing the risk of further collisions. The Iridium 33 debris cloud has impacted space traffic management and orbital debris mitigation strategies, making it a subject of ongoing study in space situational awareness.

Loading next visibility...
Identifier
33933, 1993-036EN
Orbit
LEO
Country
Flag of CISCIS
Related business
Manufacturer
Unknown
Mission
Spacecraft
Bus & Motor
Unknown
Mass
Unknown
Launch date (UTC)
1993-06-16 (33 years ago)
Launch vehicle
Unknown
Launch site
Plesetsk Missile And Space Complex (PKMTR)
Object type
Payload
Rocket body
Debris
Shape & HBR
Unknown shape, 0.2 m
Radar Cross Section
Small (<0.1 m²)

Expand to show TLE details & history
Last TLE update: 14 hours ago

TLE from 14 hours ago
0 COSMOS 2251 DEB
1 33933U 93036EN  26035.51229507  .00001357  00000-0  48430-3 0  9997
2 33933  74.0905 322.1190 0072518 316.5408  43.0040 14.33653263885554
Epoch: 2026-02-04T12:17Z
TLE epoch observation values (Epoch: 2026-02-04T12:17:42.294Z)
Latitude
-0.00007°
Longitude
3.01494°
Altitude
744.368 km
Speed
7.502 km/s
True Right ascension
21h 28m 28s
True Declination
0° 00' 00"
Sunlit
Object was in daylight at epoch
Visualization orbit readout
Latitude
Unknown
Longitude
Unknown
Altitude
Unknown
Speed
Unknown
Apparent Right ascension
Unknown
Apparent Declination
Unknown
Sunlit
N/A
Visualization observer readout
Local Sidereal Time
03:53:08
Azimuth
Unknown
Elevation
Unknown
Doppler factor
Unknown
Orbital elements
Apogee altitude
829.056 km
Perigee altitude
725.278 km
Semi-major axis
7,155.304 km
Eccentricity
0.00725
Inclination
74.0905°
RAAN
322.119°
Arg. of periapsis
316.5408°
True anomaly
43.57455°
Mean anomaly
43.004°
Eccentric anomaly
43.2889°
Mean motion
3.58592 °/min
Orbital period
100.39 mins
BSTAR
0.0004843
Loading maneuver chart data...
Computing Atmospheric mass density...

Documentation

Showing up to 5 results
|